This demonstration page uses our WeatherBlox Daily Observations layout. Learn more.

Left ArrowRight Arrow

Hourly Observations for December 11, 2015

Temp ( °F °C ) Dew Point ( °F °C ) Humidity (%) Winds ( mph kmh ) Pressure ( in mb ) Visibility ( mi km ) Precip ( " mm )
12:58 am 00:58 Clear 31 -0.8 27 -2.8 86 86 Calm 29.67 1005 10 16 0.00 0.00
1:58 am 01:58 Clear 32 -0.2 28 -2.4 85 85 NNW 1 2 29.66 1004 10 16 0.00 0.00
2:58 am 02:58 Clear 31 -0.7 27 -2.8 86 86 ENE 3 6 29.65 1004 10 16 0.00 0.00
3:58 am 03:58 Clear 28 -2.5 25 -4 90 90 ENE 3 6 29.64 1004 10 16 0.00 0.00
4:58 am 04:58 Clear 30 -1.1 27 -2.6 90 90 NE 5 7 29.62 1003 10 16 0.00 0.00
5:58 am 05:58 Clear 33 0.3 27 -2.9 79 79 NNE 8 13 29.62 1003 10 16 0.00 0.00
6:58 am 06:58 Clear 35 1.4 29 -1.4 82 82 ENE 2 4 29.62 1003 10 16 0.00 0.00
7:58 am 07:58 Sunny 35 1.5 29 -1.4 81 81 E 8 13 29.62 1003 10 16 0.00 0.00
8:58 am 08:58 Sunny 41 5.1 33 0.5 72 72 ESE 9 15 29.60 1002 10 16 0.00 0.00
9:58 am 09:58 Sunny 47 8.1 36 2.4 68 68 SE 13 20 29.58 1002 10 16 0.00 0.00
10:58 am 10:58 Sunny 49 9.7 38 3.3 65 65 ESE 12 19 29.60 1002 10 16 0.00 0.00
11:58 am 11:58 Sunny 53 11.6 39 4.1 60 60 ESE 13 20 29.55 1001 10 16 0.00 0.00
12:58 pm 12:58 Sunny 56 13.4 40 4.7 56 56 SSE 8 13 29.55 1001 10 16 0.00 0.00
1:58 pm 13:58 Sunny 57 13.7 40 4.7 55 55 S 5 7 29.55 1001 10 16 0.00 0.00
2:58 pm 14:58 Mostly Sunny 55 12.9 40 4.7 58 58 SE 2 4 29.55 1001 10 16 0.00 0.00
3:58 pm 15:58 Sunny 52 11.3 40 4.5 63 63 SSE 2 4 29.59 1002 10 16 0.00 0.00
4:58 pm 16:58 Clear 45 7.1 39 4 81 81 Calm 29.62 1003 10 16 0.00 0.00
5:58 pm 17:58 Clear 42 5.5 38 3.1 85 85 WSW 3 6 29.66 1005 10 16 0.00 0.00
6:58 pm 18:58 Mostly Cloudy 44 6.6 39 3.9 83 83 WNW 6 9 29.69 1005 10 16 0.00 0.00
7:58 pm 19:58 Clear 43 6.2 39 3.9 85 85 WNW 5 7 29.71 1006 10 16 0.00 0.00
8:58 pm 20:58 Clear 44 6.5 39 3.7 83 83 VRB 1 2 29.72 1007 10 16 0.00 0.00
9:58 pm 21:58 Clear 44 6.4 38 3.5 82 82 N 2 4 29.71 1006 10 16 0.00 0.00
10:58 pm 22:58 Mostly Cloudy 42 5.7 38 3.5 86 86 WNW 7 11 29.73 1007 10 16 0.00 0.00
11:58 pm 23:58 Mostly Cloudy 40 4.7 37 2.5 86 86 NW 7 11 29.76 1008 10 16 0.00 0.00

Powered by AerisWeather